SBSLSBMQ

Guest
Details From SBSL - Marechal Cunha Machado
To SBMQ - Macapa
Flight Number -
Tags Generated
Created
Modified
Stats Distance 440 nm / 815 km
Max Altitude 0 ft / 0 m
Waypoints 3
Social Downloads 1
Likes 0
Share VATSIM

Download

Looking for another format? Having issues loading an existing format? Contact us
Advertisement - Login to hide

Notes

Generated

Route

SBSL MCP SBMQ

ID Type Via Altitude Latitude Longitude Leg Dist Tot Dist Heading (true) Name
O SBSL APT - 0 ft / 0 m -2.58857˚ -44.24240˚ - 0 nm - Marechal Cunha Machado
MCP NDB - 0 ft / 0 m 0.04650˚ -51.06883˚ 439 nm 439 nm 291° / 291° MACAPA NDB
O SBMQ APT - 0 ft / 0 m 0.04551˚ -51.08013˚ 0 nm 440 nm 265° / 265° -

Altitude Profile

Advertisement - Login to hide

Weather


0- 5 10 15 20 25 30 35+ Temperature / ° C

Clouds and Precipitation
Forecast for 2018-05-27 12:00 UTC. Updated an hour ago

Ground ~20,000 ft ~40,000 ft Winds

SBSL

Details ICAO SBSL (SLZ)
Name Marechal Cunha Machado
Region Brazil
Timezone America/Fortaleza (UTC-3.0)
Stats Elevation 178 ft / 54 m (AMSL)
Location -2.587308° -44.236384°
Runways 2
Magnetic Variation 20.914° W

METAR

SBSL 271000Z 00000KT 9999 BKN017 25/24 Q1012

Decode

TAF

TAF SBSL 270400Z 2706/2806 06010KT 9999 BKN017 TN23/2707Z TX31/2716Z BECMG 2710/2712 09008KT SCT017 BECMG 2715/2717 05010KT SCT020 FEW025TCU PROB30 TEMPO 2719/2722 8000 TSRA BKN020 FEW030CB BECMG 2722/2724 07005KT FEW017 RMK PCQ

Decode

Departure Runways

ID Width Length Bearing (true) Bearing (mag) Surface Threshold Offset Overrun Length
06 148 ft / 45 m 7,902 ft / 2,409 m 38.74° 59.65° Asphalt 0 ft / 0 m 197 ft / 60 m
09 135 ft / 41 m 4,867 ft / 1,483 m 68.93° 89.84° Asphalt 270 ft / 82 m 185 ft / 56 m
24 148 ft / 45 m 7,902 ft / 2,409 m 218.74° 239.65° Asphalt 0 ft / 0 m 197 ft / 60 m
27 135 ft / 41 m 4,867 ft / 1,483 m 248.93° 269.84° Asphalt 0 ft / 0 m 200 ft / 61 m

SBMQ

Details ICAO SBMQ (MCP)
Name MACAPA
Region Brazil
Timezone America/Belem (UTC-3.0)
Stats Elevation 56 ft / 17 m (AMSL)
Location 0.050639° -51.072162°
Runways 1
Magnetic Variation 19.369° W

METAR

SBMQ 271000Z 02004KT 9999 BKN005 25/25 Q1012

Decode

TAF

TAF SBMQ 270400Z 2706/2806 02003KT 9999 FEW010 TN25/2709Z TX32/2717Z BECMG 2711/2713 03005KT BECMG 2716/2718 08008KT SCT020 FEW030TCU PROB30 TEMPO 2719/2722 8000 TSRA SCT020 FEW030CB BECMG 2722/2724 04005KT FEW015 BECMG 2803/2805 36005KT RMK PCQ

Decode

Destination Runways

ID Width Length Bearing (true) Bearing (mag) Surface Threshold Offset Overrun Length
08 148 ft / 45 m 6,917 ft / 2,108 m 57.22° 76.59° Asphalt 0 ft / 0 m 219 ft / 67 m
26 148 ft / 45 m 6,917 ft / 2,108 m 237.22° 256.59° Asphalt 0 ft / 0 m 219 ft / 67 m

Popular Alternatives